GW5071 Weather Reports


time (UTC)temp
C
wind
direction
speed
KPH
gust
KPH
rain 1hr
cm
rain 24hr
cm
rain mn
cm
humidity
%
barometer
mb
20260504215223 12 188 20.9 27.4 0.00 0.00 0.00 83 1012.9
20260504214718 12 193 17.7 27.4 0.00 0.00 0.00 82 1013.0
20260504214215 12 183 9.7 30.6 0.00 0.00 0.00 82 1013.1
20260504213712 12 196 17.7 25.7 0.00 0.00 0.00 82 1013.1
20260504213208 12 201 20.9 25.7 0.00 0.00 0.00 82 1013.1
20260504212705 12 194 17.7 27.4 0.00 0.00 0.00 82 1013.0
20260504212202 12 188 17.7 29.0 0.00 0.00 0.00 82 1013.0
20260504211659 12 194 27.4 32.2 0.00 0.00 0.00 81 1012.9
20260504211155 12 186 19.3 32.2 0.00 0.00 0.00 81 1013.0
20260504210653 12 172 14.5 32.2 0.00 0.00 0.00 80 1012.9
20260504210149 13 184 17.7 27.4 0.00 0.00 0.00 80 1012.8
20260504205647 13 215 16.1 32.2 0.00 0.00 0.00 79 1013.0
20260504205144 13 195 14.5 27.4 0.00 0.00 0.00 79 1013.1
20260504204642 13 178 8.0 30.6 0.00 0.00 0.00 79 1012.9
20260504204141 13 194 16.1 29.0 0.00 0.00 0.00 79 1012.9
20260504203639 13 196 19.3 27.4 0.00 0.00 0.00 79 1013.1
20260504203137 13 196 11.3 25.7 0.00 0.00 0.00 79 1013.0
20260504202637 13 193 17.7 30.6 0.00 0.00 0.00 78 1013.0
20260504202134 13 191 20.9 29.0 0.00 0.00 0.00 78 1013.3
20260504201631 13 199 16.1 29.0 0.00 0.00 0.00 78 1013.2
20260504201129 13 184 16.1 33.8 0.00 0.00 0.00 79 1013.2
20260504200625 13 190 19.3 30.6 0.00 0.00 0.00 79 1013.1
20260504200122 12 195 24.1 33.8 0.00 0.00 0.00 78 1013.3
20260504195618 13 181 20.9 30.6 0.00 0.00 0.00 78 1013.3
20260504195114 13 191 20.9 27.4 0.00 0.00 0.00 78 1013.5
20260504194611 13 178 20.9 30.6 0.00 0.00 0.00 77 1013.4
20260504194107 13 190 17.7 33.8 0.00 0.00 0.00 77 1013.4
20260504193603 13 189 16.1 27.4 0.00 0.00 0.00 77 1013.5
20260504193102 13 216 14.5 29.0 0.00 0.00 0.00 76 1013.6
20260504192600 13 207 32.2 33.8 0.00 0.00 0.00 75 1013.4
20260504192058 13 216 27.4 37.0 0.00 0.00 0.00 76 1013.7
20260504191556 13 215 14.5 32.2 0.00 0.00 0.00 76 1013.5
20260504191051 13 203 16.1 27.4 0.00 0.00 0.00 76 1013.6
20260504190548 13 206 16.1 24.1 0.00 0.00 0.00 76 1013.7
20260504190044 13 192 14.5 33.8 0.00 0.00 0.00 76 1013.8
20260504185541 14 210 22.5 29.0 0.00 0.00 0.00 73 1013.7
20260504185038 14 209 16.1 30.6 0.00 0.00 0.00 74 1013.7
20260504184533 14 208 22.5 33.8 0.00 0.00 0.00 73 1013.8
20260504184029 14 217 20.9 29.0 0.00 0.00 0.00 73 1013.9
20260504183526 13 209 17.7 33.8 0.00 0.00 0.00 74 1014.0
20260504183025 13 217 24.1 35.4 0.00 0.00 0.00 76 1014.0
20260504182521 13 211 25.7 32.2 0.00 0.00 0.00 75 1013.9
20260504182018 13 205 16.1 38.6 0.00 0.00 0.00 77 1014.0
20260504181515 13 218 35.4 37.0 0.00 0.00 0.00 77 1014.0
20260504181014 13 206 19.3 32.2 0.00 0.00 0.00 77 1014.4
20260504180513 13 214 19.3 37.0 0.00 0.00 0.00 77 1014.1
20260504180011 13 212 27.4 33.8 0.00 0.00 0.00 78 1014.4
20260504175508 13 217 16.1 38.6 0.00 0.00 0.00 78 1014.3
20260504175005 13 220 20.9 30.6 0.00 0.00 0.00 78 1014.4
20260504174503 13 217 24.1 38.6 0.00 0.00 0.00 78 1014.3
20260504173959 13 213 20.9 33.8 0.00 0.00 0.00 77 1014.4
20260504173456 13 205 17.7 33.8 0.00 0.00 0.00 78 1014.6
20260504172953 13 212 32.2 35.4 0.00 0.00 0.00 78 1014.6
20260504172448 13 202 25.7 33.8 0.00 0.00 0.00 78 1014.5
20260504171945 13 203 20.9 33.8 0.00 0.00 0.00 79 1014.6
20260504171443 12 207 17.7 32.2 0.00 0.00 0.00 80 1014.6
20260504170939 13 211 27.4 32.2 0.00 0.00 0.00 79 1014.7
20260504170435 13 220 20.9 32.2 0.00 0.00 0.00 78 1015.0
20260504160355 12 202 19.3 29.0 0.00 0.00 0.00 78 1015.4
20260504150820 12 225 14.5 27.4 0.00 0.00 0.00 77 1015.9
20260504150316 13 208 19.3 22.5 0.00 0.00 0.00 75 1016.0
20260504141246 12 231 22.5 25.7 0.00 0.00 0.00 75 1016.3
20260504140743 12 223 16.1 32.2 0.00 0.00 0.00 75 1016.5
20260504140238 12 228 19.3 27.4 0.00 0.00 0.00 75 1016.3
20260504130707 11 237 17.7 32.2 0.00 0.00 0.00 76 1016.8
20260504130203 12 229 19.3 29.0 0.00 0.00 0.00 74 1016.7
20260504120127 11 230 19.3 32.2 0.00 0.00 0.00 75 1017.0
20260504110554 10 243 24.1 33.8 0.00 0.00 0.00 73 1016.8
20260504100516 10 229 27.4 32.2 0.00 0.00 0.00 77 1016.5
20260504081909 10 226 17.7 30.6 0.00 0.00 0.00 77 1015.9
20260504081406 10 239 17.7 22.5 0.00 0.00 0.00 77 1015.8
20260504080902 10 235 14.5 24.1 0.00 0.00 0.00 76 1015.9
20260504080359 10 247 14.5 24.1 0.00 0.00 0.00 76 1015.7
20260504070326 10 224 22.5 25.7 0.00 0.00 0.00 74 1015.3
20260504060247 10 244 12.9 29.0 0.00 0.00 0.00 71 1015.1
20260504050715 10 230 20.9 25.7 0.00 0.00 0.00 72 1015.0
20260504050213 11 222 19.3 29.0 0.00 0.00 0.00 70 1014.8
20260504045710 11 240 12.9 27.4 0.00 0.00 0.00 69 1014.9
20260504045210 10 235 19.3 27.4 0.00 0.00 0.00 72 1014.9
20260504044708 10 236 22.5 29.0 0.00 0.00 0.00 72 1014.9
20260504044205 10 231 17.7 29.0 0.00 0.00 0.00 73 1014.9
20260504043702 10 240 16.1 24.1 0.00 0.00 0.00 75 1015.0
20260504043158 10 218 20.9 29.0 0.00 0.00 0.00 76 1014.8
20260504042655 10 229 12.9 20.9 0.00 0.00 0.00 76 1015.2
20260504042152 10 221 16.1 22.5 0.00 0.00 0.00 75 1015.1
20260504041648 10 229 19.3 20.9 0.00 0.00 0.00 75 1014.9
20260504041144 10 218 12.9 20.9 0.00 0.00 0.00 74 1015.0
20260504040641 10 233 14.5 17.7 0.00 0.00 0.00 75 1014.8
20260504040138 10 239 9.7 19.3 0.00 0.00 0.00 74 1014.9
20260504035634 10 227 12.9 17.7 0.00 0.00 0.00 74 1014.7
20260504035131 10 228 12.9 17.7 0.00 0.00 0.00 72 1015.0
20260504034629 11 228 14.5 20.9 0.00 0.00 0.00 69 1014.9
20260504034126 11 229 17.7 20.9 0.00 0.00 0.00 65 1014.7
20260504033624 11 239 14.5 17.7 0.00 0.00 0.00 64 1014.6
20260504033121 11 227 17.7 24.1 0.00 0.00 0.00 68 1014.5
20260504032618 10 225 19.3 25.7 0.00 0.00 0.00 73 1014.6
20260504032115 10 231 14.5 24.1 0.00 0.00 0.00 73 1014.7
20260504031612 11 231 16.1 24.1 0.00 0.00 0.00 73 1014.7
20260504031108 10 234 17.7 20.9 0.00 0.00 0.00 73 1014.7
20260504030605 11 223 14.5 19.3 0.00 0.00 0.00 72 1014.9
20260504030101 11 239 14.5 25.7 0.00 0.00 0.00 70 1014.6
20260504025558 10 235 16.1 20.9 0.00 0.00 0.00 71 1014.9
20260504025055 10 246 16.1 16.1 0.00 0.00 0.00 75 1014.8
20260504024552 10 231 11.3 17.7 0.00 0.00 0.00 77 1014.9
20260504024049 10 217 11.3 20.9 0.00 0.00 0.00 77 1014.7
20260504023546 10 225 12.9 16.1 0.00 0.00 0.00 78 1014.7
20260504023042 10 207 11.3 12.9 0.00 0.00 0.00 77 1014.8
20260504022538 10 209 9.7 14.5 0.00 0.00 0.00 75 1014.7
20260504022034 11 230 14.5 19.3 0.00 0.00 0.00 62 1014.6
20260504021532 11 239 11.3 24.1 0.00 0.00 0.00 59 1014.6
20260504021028 11 232 17.7 17.7 0.00 0.00 0.00 61 1014.8
20260504020525 11 243 8.0 12.9 0.00 0.00 0.00 67 1014.7
20260504020022 11 236 11.3 19.3 0.00 0.00 0.00 68 1014.6
20260504015518 11 238 9.7 19.3 0.00 0.00 0.00 69 1014.6
20260504015014 11 229 19.3 20.9 0.00 0.00 0.00 70 1014.4
20260504014510 11 220 11.3 17.7 0.00 0.00 0.00 67 1014.6
20260504014008 11 232 17.7 24.1 0.00 0.00 0.00 61 1014.5
20260504013506 11 228 8.0 17.7 0.00 0.00 0.00 59 1014.3
20260504013001 11 236 17.7 19.3 0.00 0.00 0.00 58 1014.3
20260504012500 11 232 12.9 17.7 0.00 0.00 0.00 59 1014.5
20260504011957 11 225 17.7 20.9 0.00 0.00 0.00 62 1014.2
20260504011453 12 212 11.3 19.3 0.00 0.00 0.00 54 1014.4
20260504010949 12 236 8.0 11.3 0.00 0.00 0.00 43 1014.0
20260504010446 12 236 8.0 11.3 0.00 0.00 0.00 43 1014.0
20260504005942 12 231 11.3 14.5 0.00 0.00 0.00 46 1014.0
20260504005439 12 240 4.8 9.7 0.00 0.00 0.00 49 1013.8
20260504004936 13 257 4.8 12.9 0.00 0.00 0.00 52 1013.7
20260504004434 13 264 9.7 12.9 0.00 0.00 0.00 50 1013.8
20260504003930 13 261 6.4 14.5 0.00 0.00 0.00 51 1013.9
20260504003427 13 271 11.3 14.5 0.00 0.00 0.00 50 1013.8
20260504002923 13 266 11.3 14.5 0.00 0.00 0.00 49 1013.6
20260504002420 13 271 12.9 14.5 0.00 0.00 0.00 51 1013.2
20260504001918 13 272 9.7 14.5 0.00 0.00 0.00 51 1013.4
20260504001416 13 267 12.9 14.5 0.00 0.00 0.00 50 1013.4
20260504000912 13 276 16.1 20.9 0.00 0.00 0.00 47 1013.2
20260504000409 13 267 11.3 19.3 0.00 0.00 0.00 46 1013.4
20260503235906 13 273 16.1 24.1 0.00 0.00 0.00 46 1013.3
20260503235404 13 269 12.9 20.9 0.00 0.00 0.00 46 1013.1
20260503234901 13 274 19.3 29.0 0.00 0.00 0.00 45 1013.1
20260503234359 14 290 25.7 29.0 0.00 0.00 0.00 41 1013.1
20260503233856 14 281 19.3 29.0 0.00 0.00 0.00 47 1013.0
20260503233353 14 284 29.0 33.8 0.00 0.00 0.00 42 1012.8
20260503232849 14 280 20.9 33.8 0.00 0.00 0.00 43 1012.7
20260503232347 14 300 29.0 37.0 0.00 0.00 0.00 43 1012.8
20260503231845 14 291 25.7 37.0 0.00 0.00 0.00 42 1012.5
20260503231342 14 288 30.6 40.2 0.00 0.00 0.00 42 1012.8
20260503230838 14 291 33.8 38.6 0.00 0.00 0.00 41 1012.6
20260503230335 14 287 38.6 41.8 0.00 0.00 0.00 39 1012.6
20260503225833 14 307 35.4 35.4 0.00 0.00 0.00 39 1012.7
20260503225328 14 309 30.6 32.2 0.00 0.00 0.00 42 1012.6
20260503224824 14 304 38.6 51.5 0.00 0.00 0.00 40 1012.4
20260503224321 14 303 37.0 40.2 0.00 0.00 0.00 41 1012.5
20260503223819 14 294 45.1 48.3 0.00 0.00 0.00 41 1012.5
20260503223317 14 283 24.1 35.4 0.00 0.00 0.00 43 1012.7
20260503222812 14 293 35.4 45.1 0.00 0.00 0.00 43 1012.5
20260503222311 14 285 29.0 43.5 0.00 0.00 0.00 41 1012.4
20260503221809 14 285 19.3 40.2 0.00 0.00 0.00 50 1012.2
20260503221307 14 272 24.1 37.0 0.00 0.00 0.00 40 1012.3
20260503220802 13 292 35.4 43.5 0.00 0.00 0.00 37 1012.6
20260503220300 13 288 30.6 40.2 0.00 0.00 0.00 42 1012.3
20260503215756 13 296 32.2 40.2 0.00 0.00 0.00 45 1012.4